Location: Peebles
(55.6412°N, 3.1714°W)
Time: 14:00:39
(UTC+01:00)

Cosmos 2154 Rocket - Pass Details

Date: 26 September 2021
Orbit: 965 x 997 km, 82.9° (Epoch: 17 October)

Event Time Altitude Azimuth Distance (km) Brightness Sun altitude
Rises 20:35:45 0° 194° (SSW) 3,706 7.0 -14.1°
Reaches altitude 10° 20:38:16 10° 196° (SSW) 2,761 6.3 -14.4°
Maximum altitude 20:44:38 78° 283° (WNW) 1,024 4.2 -15.2°
Drops below altitude 10° 20:51:01 10° 10° (N) 2,771 6.5 -16.1°
Sets 20:53:34 0° 12° (NNE) 3,720 7.2 -16.4°
